Location: Unspecified
(43.3160°N, 0.0000°E)
Time: 10:44:49
(UTC+00:00)

NOAA 19 - Visible Passes

Search period start: 04 April 2026 00:00
Search period end: 14 April 2026 00:00
Orbit: 838 x 857 km, 99.0° (Epoch: 29 March)

Date Brightness Start Highest point End Pass type
(mag) Time Alt. Az. Time Alt. Az. Time Alt. Az.
4 Apr 6.0 20:45:56 35° ENE 20:45:56 35° ENE 20:50:56 10° N visible
4 Apr 6.8 22:27:51 30° WNW 22:27:51 30° WNW 22:31:31 10° NNW visible
5 Apr 6.2 20:32:55 28° ENE 20:33:18 28° ENE 20:37:57 10° N visible
5 Apr 6.4 22:14:51 38° WNW 22:14:51 38° WNW 22:18:58 10° NNW visible
6 Apr 6.5 20:19:54 22° ENE 20:20:41 23° ENE 20:24:53 10° NNE visible
6 Apr 5.9 22:01:50 50° WNW 22:01:50 50° WNW 22:06:21 10° NNW visible
7 Apr 6.8 20:06:54 17° ENE 20:08:05 18° ENE 20:11:44 10° NNE visible
7 Apr 5.5 21:48:49 64° NW 21:48:49 64° NW 21:53:40 10° NNW visible
8 Apr 7.0 19:53:52 13° ENE 19:55:32 14° ENE 19:58:24 10° NNE visible
8 Apr 5.2 21:35:49 76° N 21:35:49 76° N 21:40:55 10° NNW visible
8 Apr 7.7 23:17:44 12° WNW 23:17:44 12° WNW 23:18:57 10° WNW visible
9 Apr 7.2 19:41:21 10° ENE 19:43:00 11° NE 19:44:39 10° NE visible
9 Apr 5.2 21:22:48 70° ENE 21:22:48 70° ENE 21:28:08 10° N visible
9 Apr 7.5 23:04:43 16° WNW 23:04:43 16° WNW 23:07:11 10° NW visible
10 Apr 5.4 21:09:47 55° ENE 21:09:53 55° ENE 21:15:18 10° N visible
10 Apr 7.2 22:51:42 21° W 22:51:42 21° W 22:55:00 10° NW visible
11 Apr 5.6 20:56:46 42° E 20:57:13 43° ENE 21:02:26 10° N visible
11 Apr 6.8 22:38:42 27° W 22:38:42 27° W 22:42:38 10° NW visible
12 Apr 6.0 20:43:45 33° E 20:44:33 34° ENE 20:49:30 10° N visible
12 Apr 6.5 22:25:41 34° W 22:25:41 34° W 22:30:09 10° NNW visible
13 Apr 6.3 20:30:45 25° E 20:31:55 27° ENE 20:36:30 10° N visible
13 Apr 6.0 22:12:41 44° W 22:12:41 44° W 22:17:35 10° NNW visible
